Location: Aboncourt
(47.7710°N, 5.9826°E)
Time: 02:44:42
(UTC+00:00)

Helios 1A - Pass Details

Date: 05 July 2020
Orbit: 587 x 600 km, 98.2° (Epoch: 01 August)

Event Time Altitude Azimuth Distance (km) Brightness Sun altitude
Exits shadow 23:24:56 47° 153° (SSE) 779 3.1 -19.5°
Maximum altitude 23:26:04 80° 74° (ENE) 603 2.9 -19.5°
Drops below altitude 10° 23:30:14 10° 348° (NNW) 1,925 6.8 -19.5°
Sets 23:32:24 0° 348° (NNW) 2,832 8.0 -19.5°
